Flag Weather past 2 weeks in Black Mountain, North Carolina, U.S.A.

Now
41 °F

Sunny.


Feels Like: 34 °F
Forecast: 27 / 49 °F
Wind: 12 mph from North

Location: Asheville Regional Airport

Current Time: Nov 21, 2014 at 11:51:18 AM

Latest Report: Nov 21, 2014 at 10:54 AM


Visibility: 10 mi

Pressure: 30.42 "Hg

Humidity: 35%

Dew point: 15 °F

Location of Black MountainLocation

Historic Weather in Black Mountain — Graph

°F

Black Mountain temperature yesterday

Maximum temperature yesterday: 54 °F (at 1:54 PM)
Minimum temperature yesterday: 25 °F (at 3:54 AM)
Average temperature yesterday: 38 °F

Past Weeks' High & Low Weather Summary

 TemperatureHumidityPressure
High71 °F (Nov 11, 2:54 PM)100% (Nov 11, 9:00 AM)30.43 "Hg (Nov 11, 9:00 AM)
Low17 °F (Nov 18, 6:54 AM)23% (Nov 6, 2:54 PM)29.66 "Hg (Nov 17, 11:54 AM)
Average39 °F64%30.09 "Hg
* Reported Nov 6 9:54 AM — Nov 21 9:54 AM, Black Mountain, Weather by CustomWeather, © 2014

Note: Actual official high and low records may vary slightly from our data, if they occured in-between our weather recording intervals... More about our weather records

Advertising

Black Mountain weather history for previous 24 hours

 ConditionsComfort  
Time TempWeatherWind HumidityBarometerVisibility
9:54 AM
Nov 21
38 °FSunny.13 mph41%30.42 "Hg10 mi
8:54 AM32 °FSunny.9 mph56%30.40 "Hg10 mi
7:54 AM31 °FSunny.8 mph59%30.37 "Hg10 mi
6:54 AM31 °FClear.9 mph59%30.32 "Hg10 mi
5:54 AM32 °FClear.9 mph59%30.30 "Hg10 mi
4:54 AM32 °FClear.9 mph64%30.27 "Hg10 mi
3:54 AM33 °FClear.8 mph58%30.26 "Hg10 mi
2:54 AM33 °FClear.10 mph61%30.23 "Hg10 mi
1:54 AM35 °FClear.6 mph54%30.21 "Hg10 mi
12:54 AM36 °FClear.6 mph52%30.19 "Hg10 mi
11:54 PM
Nov 20
33 °FClear.5 mph63%30.19 "Hg10 mi
10:54 PM34 °FClear.7 mph61%30.18 "Hg10 mi
9:54 PM32 °FClear.5 mph64%30.17 "Hg10 mi
8:54 PM33 °FClear.3 mph66%30.17 "Hg10 mi
7:54 PM39 °FClear.No wind48%30.14 "Hg10 mi
6:54 PM43 °FClear.7 mph40%30.14 "Hg10 mi
5:54 PM45 °FClear.7 mph34%30.11 "Hg10 mi
4:54 PM51 °FSunny.6 mph27%30.08 "Hg10 mi
3:54 PM53 °FSunny.9 mph27%30.07 "Hg10 mi
2:54 PM54 °FSunny.9 mph27%30.06 "Hg10 mi
1:54 PM54 °FSunny.13 mph26%30.06 "Hg10 mi
12:54 PM53 °FSunny.12 mph32%30.07 "Hg10 mi
11:54 AM50 °FSunny.8 mph38%30.11 "Hg10 mi
Weather by CustomWeather, © 2014

See weather overviewHow to use our weather pages